UAL2397 KEWR-KORD

Flight info

Callsign UAL2397
Flight time N/A
Altitude 40000
Route COATE Q436 KAYYS WYNDE3
Aircraft B772/H-SDE2E3FGHIJ5LORVWXY/LB1D1

Departure

Time 2026-05-04 05:24
Airport Newark Liberty International Airport (KEWR)

Arrival

Time N/A
Airport Chicago O'Hare International Airport (KORD)
Time Latitude Longitude Altitude Speed Heading
2026-05-04 04:47 40.69687 -74.17682 25 ft 0 kts 165°
2026-05-04 05:11 40.69688 -74.17682 25 ft 1 kts 165°
2026-05-04 05:11 40.69702 -74.17687 31 ft 3 kts 165°
2026-05-04 05:11 40.69722 -74.17694 31 ft 3 kts 165°
2026-05-04 05:12 40.69741 -74.17701 31 ft 3 kts 165°
2026-05-04 05:12 40.69761 -74.17707 31 ft 3 kts 165°
2026-05-04 05:12 40.69774 -74.17712 31 ft 1 kts 165°
2026-05-04 05:12 40.69775 -74.17712 31 ft 0 kts 165°
2026-05-04 05:19 40.69761 -74.17701 31 ft 4 kts 135°
2026-05-04 05:20 40.69782 -74.17659 31 ft 14 kts 18°
2026-05-04 05:20 40.69925 -74.17677 28 ft 19 kts 355°
2026-05-04 05:20 40.70038 -74.17672 31 ft 16 kts
2026-05-04 05:20 40.70132 -74.17619 30 ft 16 kts 66°
2026-05-04 05:21 40.70131 -74.17475 32 ft 16 kts 95°
2026-05-04 05:21 40.70121 -74.17303 30 ft 23 kts 95°
2026-05-04 05:21 40.70108 -74.17107 27 ft 19 kts 95°
2026-05-04 05:21 40.70096 -74.16947 26 ft 20 kts 95°
2026-05-04 05:22 40.70083 -74.16733 23 ft 26 kts 95°
2026-05-04 05:22 40.70071 -74.16559 20 ft 14 kts 95°
2026-05-04 05:22 40.70065 -74.16475 20 ft 0 kts 95°
2026-05-04 05:22 40.70064 -74.16459 20 ft 7 kts 95°
2026-05-04 05:23 40.70030 -74.16394 19 ft 12 kts 157°
2026-05-04 05:23 40.69985 -74.16396 18 ft 6 kts 198°
2026-05-04 05:23 40.69972 -74.16404 18 ft 0 kts 203°
2026-05-04 05:23 40.69971 -74.16405 18 ft 0 kts 203°
2026-05-04 05:24 40.69730 -74.16557 25 ft 93 kts 206°
2026-05-04 05:24 40.68846 -74.17111 207 ft 176 kts 207°
2026-05-04 05:24 40.67643 -74.17857 1178 ft 206 kts 208°
2026-05-04 05:24 40.66302 -74.18659 1934 ft 215 kts 199°
2026-05-04 05:25 40.64789 -74.18873 2453 ft 220 kts 187°
2026-05-04 05:25 40.63314 -74.19421 2993 ft 220 kts 214°
2026-05-04 05:25 40.62316 -74.20875 3481 ft 220 kts 254°
2026-05-04 05:25 40.62275 -74.22896 3894 ft 227 kts 290°
2026-05-04 05:26 40.63151 -74.24456 4895 ft 203 kts 316°
2026-05-04 05:26 40.64237 -74.25689 5401 ft 210 kts 319°
2026-05-04 05:26 40.65395 -74.26861 5952 ft 213 kts 320°
2026-05-04 05:26 40.66672 -74.28004 6304 ft 218 kts 329°
2026-05-04 05:27 40.67999 -74.28914 7047 ft 213 kts 330°
2026-05-04 05:28 40.78619 -74.35038 9899 ft 282 kts 333°
2026-05-04 05:29 40.80472 -74.36115 10302 ft 298 kts 333°
2026-05-04 05:29 40.82408 -74.37245 10690 ft 316 kts 333°
2026-05-04 05:29 40.84472 -74.38458 11109 ft 328 kts 333°
2026-05-04 05:29 40.86581 -74.39702 11496 ft 331 kts 333°
2026-05-04 05:31 41.01627 -74.51722 15914 ft 389 kts 319°
2026-05-04 05:31 41.03765 -74.53937 16552 ft 389 kts 314°
2026-05-04 05:32 41.05715 -74.56403 17223 ft 392 kts 310°
2026-05-04 05:32 41.07631 -74.59013 17909 ft 395 kts 309°
2026-05-04 05:32 41.09548 -74.61664 18577 ft 399 kts 309°
2026-05-04 05:33 41.13172 -74.67185 19789 ft 400 kts 301°
2026-05-04 05:33 41.14809 -74.70192 20426 ft 402 kts 300°
2026-05-04 05:33 41.16426 -74.73239 21069 ft 405 kts 300°
2026-05-04 05:33 41.18054 -74.76318 21729 ft 408 kts 300°
2026-05-04 05:34 41.19700 -74.79430 22415 ft 412 kts 300°
2026-05-04 05:34 41.21281 -74.82564 23110 ft 414 kts 296°
2026-05-04 05:34 41.22800 -74.85827 23770 ft 417 kts 296°
2026-05-04 05:34 41.24345 -74.89107 24366 ft 420 kts 296°
2026-05-04 05:35 41.25914 -74.92416 24978 ft 422 kts 296°
2026-05-04 05:35 41.27486 -74.95718 25598 ft 423 kts 296°
2026-05-04 05:35 41.29049 -74.98993 26223 ft 424 kts 296°
2026-05-04 05:35 41.30636 -75.02310 26873 ft 424 kts 296°
2026-05-04 05:36 41.32234 -75.05643 27533 ft 424 kts 297°
2026-05-04 05:36 41.33830 -75.08960 28202 ft 423 kts 297°
2026-05-04 05:36 41.35397 -75.12213 28891 ft 422 kts 297°
2026-05-04 05:36 41.36989 -75.15511 29585 ft 420 kts 297°
2026-05-04 05:37 41.38558 -75.18753 30251 ft 418 kts 297°
2026-05-04 05:37 41.40132 -75.21998 30853 ft 415 kts 297°
2026-05-04 05:37 41.41699 -75.25226 31472 ft 412 kts 297°
2026-05-04 05:38 41.44777 -75.31563 32714 ft 406 kts 297°
2026-05-04 05:38 41.46315 -75.34727 33355 ft 403 kts 297°
2026-05-04 05:38 41.47839 -75.37861 34024 ft 399 kts 297°
2026-05-04 05:38 41.49327 -75.40918 34559 ft 395 kts 297°
2026-05-04 05:39 41.50817 -75.43981 35129 ft 391 kts 297°
2026-05-04 05:39 41.53864 -75.49851 36257 ft 386 kts 311°
2026-05-04 05:39 41.56122 -75.51846 36874 ft 395 kts 330°
2026-05-04 05:40 41.58330 -75.52730 37374 ft 401 kts 344°